Location: Morlupo
(42.1333°N, 12.5000°E)
Time: 08:00:08
(UTC+00:00)

CZ-6A DEB - Visible Passes

Search period start: 02 December 2023 00:00
Search period end: 12 December 2023 00:00
Orbit: 827 x 909 km, 98.8° (Epoch: 02 December)

Date Brightness Start Highest point End Pass type
(mag) Time Alt. Az. Time Alt. Az. Time Alt. Az.
02 Dec ? 04:07:22 10° NE 04:11:29 21° E 04:15:40 10° SE visible
02 Dec ? 17:18:10 10° SSW 17:22:37 26° W 17:27:05 10° NW visible
03 Dec ? 04:00:55 10° NE 04:04:44 19° E 04:08:33 10° SE visible
03 Dec ? 05:40:45 10° N 05:46:08 60° WNW 05:51:37 10° SSW visible
03 Dec ? 17:11:12 10° SSW 17:15:52 29° W 17:20:33 10° NW visible
04 Dec ? 03:54:33 10° NE 03:57:57 16° E 04:01:21 10° SE visible
04 Dec ? 05:33:59 10° N 05:39:27 68° WNW 05:45:00 10° SSW visible
04 Dec ? 17:04:15 10° SSW 17:09:06 34° W 17:13:58 10° NNW visible
05 Dec ? 03:48:17 10° ENE 03:51:10 14° E 03:54:02 10° ESE visible
05 Dec ? 05:27:15 10° N 05:32:46 78° WNW 05:38:21 10° SSW visible
05 Dec ? 16:57:20 10° SSW 17:02:21 38° W 17:07:22 10° NNW visible
06 Dec ? 03:42:12 10° ENE 03:44:21 12° E 03:46:31 10° ESE visible
06 Dec ? 05:20:31 10° NNE 05:26:03 87° WNW 05:31:41 10° SSW visible
06 Dec ? 16:50:28 10° S 16:55:35 44° W 17:00:44 10° NNW visible
07 Dec ? 03:36:42 10° E 03:37:32 10° E 03:38:22 10° E visible
07 Dec ? 05:13:47 10° NNE 05:19:20 82° ESE 05:24:59 10° SSW visible
07 Dec ? 16:43:37 10° S 16:48:50 51° W 16:54:05 10° NNW visible
08 Dec ? 05:07:04 10° NNE 05:12:37 73° ESE 05:18:15 10° S visible
08 Dec ? 16:36:47 10° S 16:42:05 58° W 16:47:25 10° NNW visible
09 Dec ? 05:00:22 10° NNE 05:05:53 64° ESE 05:11:29 10° S visible
09 Dec ? 16:30:00 10° S 16:35:20 67° WSW 16:40:43 10° NNW visible
10 Dec ? 04:53:40 10° NNE 04:59:09 56° E 05:04:41 10° S visible
10 Dec ? 16:23:12 10° S 16:28:35 77° WSW 16:34:00 10° NNW visible
11 Dec ? 04:46:59 10° NNE 04:52:23 49° E 04:57:51 10° S visible
11 Dec ? 16:16:27 10° SSE 16:21:50 87° WSW 16:27:16 10° NNW visible
11 Dec ? 18:02:44 10° W 18:03:39 10° W 18:04:35 10° WNW visible
